This demonstration page uses our WeatherBlox Daily Observations layout. Learn more.

Left ArrowRight Arrow

Hourly Observations for December 4, 2019

Temp ( °F °C ) Dew Point ( °F °C ) Humidity (%) Winds ( mph kmh ) Pressure ( in mb ) Visibility ( mi km ) Precip ( " mm )
12:53 am 00:53 Clear 39 3.9 31 -0.6 73 73 SW 22 35 29.86 1011 10 16 0.00 0.00
1:53 am 01:53 Clear 39 3.9 31 -0.6 73 73 SW 18 30 29.85 1011 10 16 0.00 0.00
2:53 am 02:53 Clear 40 4.4 31 -0.6 70 70 SW 21 33 29.85 1011 10 16 0.00 0.00
3:53 am 03:53 Clear 37 2.8 31 -0.6 79 79 SSW 15 24 29.84 1010 10 16 0.00 0.00
4:53 am 04:53 Clear 38 3.3 31 -0.6 76 76 SSW 15 24 29.82 1010 10 16 0.00 0.00
5:53 am 05:53 Clear 39 3.9 30 -1.1 70 70 SW 18 30 29.80 1009 10 16 0.00 0.00
6:53 am 06:53 Clear 41 5 30 -1.1 65 65 SSW 22 35 29.79 1009 10 16 0.00 0.00
7:53 am 07:53 Clear 40 4.4 30 -1.1 68 68 SSW 21 33 29.78 1008 10 16 0.00 0.00
8:53 am 08:53 Sunny 41 5 31 -0.6 67 67 SW 23 37 29.77 1008 10 16 0.00 0.00
9:53 am 09:53 Sunny 43 6.1 31 -0.6 63 63 SW 26 43 29.75 1008 10 16 0.00 0.00
10:53 am 10:53 Sunny 44 6.7 32 0 63 63 SW 23 37 29.75 1007 10 16 0.00 0.00
11:53 am 11:53 Sunny 45 7.2 33 0.6 63 63 SW 26 43 29.73 1007 10 16 0.00 0.00
12:53 pm 12:53 Sunny 44 6.7 33 0.6 65 65 SW 26 43 29.72 1007 10 16 0.00 0.00
1:53 pm 13:53 Sunny 43 6.1 32 0 65 65 SW 25 41 29.72 1006 10 16 0.00 0.00
2:53 pm 14:53 Sunny 41 5 32 0 70 70 SW 20 31 29.73 1007 10 16 0.00 0.00
3:53 pm 15:53 Sunny 39 3.9 32 0 76 76 W 5 7 29.76 1008 10 16 0.00 0.00
4:53 pm 16:53 Clear 39 3.9 31 -0.6 73 73 Calm 29.77 1008 10 16 0.00 0.00
5:53 pm 17:53 Clear 39 3.9 31 -0.6 73 73 SW 14 22 29.77 1008 10 16 0.00 0.00
6:53 pm 18:53 Clear 36 2.2 31 -0.6 82 82 W 8 13 29.81 1010 10 16 0.00 0.00
7:53 pm 19:53 Mostly Clear 32 0 28 -2.2 85 85 WNW 15 24 29.87 1011 10 16 0.00 0.00
8:17 pm 20:17 Mostly Cloudy 30 -1.1 27 -2.8 88 88 NW 8 13 29.93 1014 10 16 0.00 0.00
8:53 pm 20:53 Cloudy 29 -1.7 26 -3.3 89 89 NW 12 19 29.89 1012 8 13 0.00 0.00
9:14 pm 21:14 Cloudy with Mist and Fog 29 -1.7 26 -3.3 89 89 WNW 12 19 29.96 1014 6 10 0.00 0.00
9:53 pm 21:53 Cloudy 29 -1.7 26 -3.3 89 89 NW 10 17 29.92 1013 8 13 0.00 0.00
10:53 pm 22:53 Cloudy 28 -2.2 25 -3.9 88 88 NW 12 19 29.96 1015 10 16 0.00 0.00
11:41 pm 23:41 Cloudy 29 -1.7 26 -3.3 89 89 NNW 9 15 30.04 1017 10 16 0.00 0.00
11:53 pm 23:53 Cloudy 29 -1.7 26 -3.3 89 89 NNW 7 11 29.98 1015 10 16 0.00 0.00

Powered by AerisWeather